contact:dominique.lefevre@mio.osupytheas.fr, maurice.libes@osupytheas.fr, didier.mallarino@osupytheas.fr
Project:EMSO http://www.emso-fr.org/EMSO-France
Depth: 2436.0 m
Title:EMSO Ligure Ouest : Data MII capteur MICROCAT
DateTime_Computer,Latitude,Longitude,Temperature,Conductivity,Pressure,DateTime_Instrument
DateTime_Computer,Latitude,Longitude,degC,S m-1,dbar,DateTime_Instrument
2022-04-28T00:02:26Z,42.805,6.029,13.2998,4.60039,2470.32,2022-4-28T02:04:06Z
2022-04-28T00:05:29Z,42.805,6.029,13.2998,4.60033,2470.334,2022-4-28T02:07:09Z
2022-04-28T00:08:33Z,42.805,6.029,13.2997,4.60039,2470.32,2022-4-28T02:10:12Z
2022-04-28T00:11:36Z,42.805,6.029,13.2998,4.60041,2470.32,2022-4-28T02:13:15Z
2022-04-28T00:14:39Z,42.805,6.029,13.2995,4.60033,2470.31,2022-4-28T02:16:18Z
2022-04-28T00:17:42Z,42.805,6.029,13.2994,4.60036,2470.334,2022-4-28T02:19:21Z
2022-04-28T00:20:45Z,42.805,6.029,13.2996,4.60033,2470.31,2022-4-28T02:22:25Z
2022-04-28T00:23:48Z,42.805,6.029,13.2994,4.60034,2470.343,2022-4-28T02:25:28Z
2022-04-28T00:26:51Z,42.805,6.029,13.2993,4.60036,2470.357,2022-4-28T02:28:31Z
2022-04-28T00:29:54Z,42.805,6.029,13.2993,4.60033,2470.334,2022-4-28T02:31:34Z
2022-04-28T00:32:58Z,42.805,6.029,13.2999,4.60032,2470.32,2022-4-28T02:34:37Z
2022-04-28T00:36:01Z,42.805,6.029,13.2993,4.60033,2470.343,2022-4-28T02:37:40Z
2022-04-28T00:39:04Z,42.805,6.029,13.2993,4.60033,2470.334,2022-4-28T02:40:43Z
2022-04-28T00:42:07Z,42.805,6.029,13.2996,4.60033,2470.357,2022-4-28T02:43:46Z
2022-04-28T00:45:10Z,42.805,6.029,13.2996,4.60036,2470.32,2022-4-28T02:46:50Z
2022-04-28T00:48:13Z,42.805,6.029,13.2998,4.60033,2470.357,2022-4-28T02:49:53Z
2022-04-28T00:51:16Z,42.805,6.029,13.2997,4.60034,2470.343,2022-4-28T02:52:56Z
2022-04-28T00:54:19Z,42.805,6.029,13.2998,4.60033,2470.343,2022-4-28T02:55:59Z
2022-04-28T00:57:23Z,42.805,6.029,13.2996,4.60035,2470.32,2022-4-28T02:59:02Z
2022-04-28T01:00:26Z,42.805,6.029,13.2996,4.60033,2470.343,2022-4-28T03:02:05Z
2022-04-28T01:03:29Z,42.805,6.029,13.2999,4.60033,2470.334,2022-4-28T03:05:08Z
2022-04-28T01:06:32Z,42.805,6.029,13.2996,4.60033,2470.343,2022-4-28T03:08:11Z
2022-04-28T01:09:35Z,42.805,6.029,13.2994,4.60036,2470.32,2022-4-28T03:11:15Z
2022-04-28T01:12:38Z,42.805,6.029,13.2997,4.60036,2470.357,2022-4-28T03:14:18Z
2022-04-28T01:15:41Z,42.805,6.029,13.3001,4.60032,2470.357,2022-4-28T03:17:21Z
2022-04-28T01:18:44Z,42.805,6.029,13.2996,4.60033,2470.366,2022-4-28T03:20:24Z
2022-04-28T01:21:48Z,42.805,6.029,13.3000,4.60035,2470.334,2022-4-28T03:23:27Z
2022-04-28T01:24:51Z,42.805,6.029,13.2998,4.60034,2470.357,2022-4-28T03:26:30Z
2022-04-28T01:27:54Z,42.805,6.029,13.2996,4.60036,2470.31,2022-4-28T03:29:33Z
2022-04-28T01:30:57Z,42.805,6.029,13.2996,4.60037,2470.343,2022-4-28T03:32:36Z
2022-04-28T01:34:00Z,42.805,6.029,13.2996,4.60033,2470.32,2022-4-28T03:35:39Z
2022-04-28T01:37:03Z,42.805,6.029,13.2996,4.60036,2470.343,2022-4-28T03:38:43Z
2022-04-28T01:40:06Z,42.805,6.029,13.2999,4.60034,2470.357,2022-4-28T03:41:46Z
2022-04-28T01:43:09Z,42.805,6.029,13.2996,4.60039,2470.334,2022-4-28T03:44:49Z
2022-04-28T01:46:12Z,42.805,6.029,13.2998,4.60036,2470.343,2022-4-28T03:47:52Z
2022-04-28T01:49:16Z,42.805,6.029,13.2998,4.60035,2470.357,2022-4-28T03:50:55Z
2022-04-28T01:52:19Z,42.805,6.029,13.2996,4.60035,2470.334,2022-4-28T03:53:58Z
2022-04-28T01:55:22Z,42.805,6.029,13.2996,4.60035,2470.366,2022-4-28T03:57:01Z
2022-04-28T01:58:25Z,42.805,6.029,13.2994,4.60035,2470.32,2022-4-28T04:00:04Z
2022-04-28T02:01:28Z,42.805,6.029,13.2996,4.60037,2470.366,2022-4-28T04:03:08Z
2022-04-28T02:04:31Z,42.805,6.029,13.2998,4.60036,2470.38,2022-4-28T04:06:11Z
2022-04-28T02:07:34Z,42.805,6.029,13.2996,4.60035,2470.357,2022-4-28T04:09:14Z
2022-04-28T02:10:37Z,42.805,6.029,13.2994,4.60034,2470.343,2022-4-28T04:12:17Z
2022-04-28T02:13:41Z,42.805,6.029,13.2998,4.60035,2470.343,2022-4-28T04:15:20Z
2022-04-28T02:16:44Z,42.805,6.029,13.2995,4.60038,2470.343,2022-4-28T04:18:23Z
2022-04-28T02:19:47Z,42.805,6.029,13.2993,4.60036,2470.366,2022-4-28T04:21:26Z
2022-04-28T02:22:50Z,42.805,6.029,13.2999,4.60034,2470.343,2022-4-28T04:24:29Z
2022-04-28T02:25:53Z,42.805,6.029,13.2996,4.60037,2470.357,2022-4-28T04:27:33Z
2022-04-28T02:28:56Z,42.805,6.029,13.2997,4.60033,2470.366,2022-4-28T04:30:36Z
2022-04-28T02:31:59Z,42.805,6.029,13.2998,4.60033,2470.366,2022-4-28T04:33:39Z
2022-04-28T02:35:02Z,42.805,6.029,13.2999,4.60035,2470.39,2022-4-28T04:36:42Z
2022-04-28T02:38:06Z,42.805,6.029,13.2995,4.60035,2470.343,2022-4-28T04:39:45Z
2022-04-28T02:41:09Z,42.805,6.029,13.2998,4.60036,2470.38,2022-4-28T04:42:48Z
2022-04-28T02:44:12Z,42.805,6.029,13.2998,4.60033,2470.39,2022-4-28T04:45:51Z
2022-04-28T02:47:15Z,42.805,6.029,13.2998,4.60034,2470.404,2022-4-28T04:48:54Z
2022-04-28T02:50:18Z,42.805,6.029,13.2998,4.60035,2470.45,2022-4-28T04:51:58Z
2022-04-28T02:53:21Z,42.805,6.029,13.2995,4.60035,2470.413,2022-4-28T04:55:01Z
2022-04-28T02:56:24Z,42.805,6.029,13.2996,4.60036,2470.427,2022-4-28T04:58:04Z
2022-04-28T02:59:27Z,42.805,6.029,13.3000,4.60036,2470.366,2022-4-28T05:01:07Z
2022-04-28T03:02:31Z,42.805,6.029,13.2998,4.60034,2470.427,2022-4-28T05:04:10Z
2022-04-28T03:05:34Z,42.805,6.029,13.2998,4.60035,2470.45,2022-4-28T05:07:13Z
2022-04-28T03:08:37Z,42.805,6.029,13.2998,4.60034,2470.46,2022-4-28T05:10:16Z
2022-04-28T03:11:40Z,42.805,6.029,13.3000,4.60036,2470.46,2022-4-28T05:13:19Z
2022-04-28T03:14:43Z,42.805,6.029,13.2996,4.60034,2470.413,2022-4-28T05:16:22Z
2022-04-28T03:17:46Z,42.805,6.029,13.2999,4.60034,2470.474,2022-4-28T05:19:26Z
2022-04-28T03:20:49Z,42.805,6.029,13.2995,4.60036,2470.45,2022-4-28T05:22:29Z
2022-04-28T03:23:52Z,42.805,6.029,13.2996,4.60037,2470.413,2022-4-28T05:25:32Z
2022-04-28T03:26:55Z,42.805,6.029,13.2998,4.60036,2470.45,2022-4-28T05:28:35Z
2022-04-28T03:29:59Z,42.805,6.029,13.2998,4.60035,2470.427,2022-4-28T05:31:38Z
2022-04-28T03:33:02Z,42.805,6.029,13.2995,4.60037,2470.437,2022-4-28T05:34:41Z
2022-04-28T03:36:05Z,42.805,6.029,13.2998,4.60033,2470.46,2022-4-28T05:37:44Z
2022-04-28T03:39:08Z,42.805,6.029,13.2996,4.60035,2470.437,2022-4-28T05:40:48Z
2022-04-28T03:42:11Z,42.805,6.029,13.2994,4.60036,2470.46,2022-4-28T05:43:51Z
2022-04-28T03:45:14Z,42.805,6.029,13.2995,4.60036,2470.437,2022-4-28T05:46:54Z
2022-04-28T03:48:17Z,42.805,6.029,13.2996,4.60037,2470.437,2022-4-28T05:49:57Z
2022-04-28T03:51:20Z,42.805,6.029,13.2998,4.60036,2470.507,2022-4-28T05:53:00Z
2022-04-28T03:54:24Z,42.805,6.029,13.3000,4.60036,2470.483,2022-4-28T05:56:03Z
2022-04-28T03:57:27Z,42.805,6.029,13.2994,4.60034,2470.497,2022-4-28T05:59:06Z
2022-04-28T04:00:30Z,42.805,6.029,13.2996,4.60035,2470.483,2022-4-28T06:02:09Z
2022-04-28T04:03:33Z,42.805,6.029,13.2996,4.60035,2470.483,2022-4-28T06:05:12Z
2022-04-28T04:06:36Z,42.805,6.029,13.2996,4.60036,2470.544,2022-4-28T06:08:16Z
2022-04-28T04:09:39Z,42.805,6.029,13.2995,4.60037,2470.46,2022-4-28T06:11:19Z
2022-04-28T04:12:42Z,42.805,6.029,13.3000,4.60036,2470.483,2022-4-28T06:14:22Z
2022-04-28T04:15:45Z,42.805,6.029,13.2998,4.60035,2470.483,2022-4-28T06:17:25Z
2022-04-28T04:18:49Z,42.805,6.029,13.2998,4.60034,2470.483,2022-4-28T06:20:28Z
2022-04-28T04:21:52Z,42.805,6.029,13.2998,4.60034,2470.47,2022-4-28T06:23:31Z
2022-04-28T04:24:55Z,42.805,6.029,13.2999,4.60036,2470.497,2022-4-28T06:26:34Z
2022-04-28T04:27:58Z,42.805,6.029,13.3000,4.60035,2470.507,2022-4-28T06:29:37Z
2022-04-28T04:31:01Z,42.805,6.029,13.2998,4.60036,2470.507,2022-4-28T06:32:41Z
2022-04-28T04:34:04Z,42.805,6.029,13.2995,4.60034,2470.483,2022-4-28T06:35:44Z
2022-04-28T04:37:07Z,42.805,6.029,13.3000,4.60036,2470.483,2022-4-28T06:38:47Z
2022-04-28T04:40:10Z,42.805,6.029,13.2997,4.60036,2470.507,2022-4-28T06:41:50Z
2022-04-28T04:43:14Z,42.805,6.029,13.2998,4.60035,2470.53,2022-4-28T06:44:53Z
2022-04-28T04:46:17Z,42.805,6.029,13.2998,4.60036,2470.553,2022-4-28T06:47:56Z
2022-04-28T04:49:20Z,42.805,6.029,13.2995,4.60035,2470.507,2022-4-28T06:50:59Z
2022-04-28T04:52:23Z,42.805,6.029,13.2996,4.60037,2470.507,2022-4-28T06:54:02Z
2022-04-28T04:55:26Z,42.805,6.029,13.2998,4.60035,2470.507,2022-4-28T06:57:06Z
2022-04-28T04:58:29Z,42.805,6.029,13.2998,4.60034,2470.497,2022-4-28T07:00:09Z
2022-04-28T05:01:32Z,42.805,6.029,13.2996,4.60034,2470.507,2022-4-28T07:03:12Z
2022-04-28T05:04:35Z,42.805,6.029,13.2998,4.60036,2470.53,2022-4-28T07:06:15Z
2022-04-28T05:07:38Z,42.805,6.029,13.2997,4.60034,2470.507,2022-4-28T07:09:18Z
2022-04-28T05:10:42Z,42.805,6.029,13.2996,4.60036,2470.53,2022-4-28T07:12:21Z
2022-04-28T05:13:45Z,42.805,6.029,13.2997,4.60037,2470.483,2022-4-28T07:15:24Z
2022-04-28T05:16:48Z,42.805,6.029,13.2996,4.60035,2470.507,2022-4-28T07:18:27Z
2022-04-28T05:19:51Z,42.805,6.029,13.2999,4.60036,2470.507,2022-4-28T07:21:30Z
2022-04-28T05:22:54Z,42.805,6.029,13.2994,4.60036,2470.553,2022-4-28T07:24:34Z
2022-04-28T05:25:57Z,42.805,6.029,13.2996,4.60036,2470.553,2022-4-28T07:27:37Z
2022-04-28T05:29:00Z,42.805,6.029,13.2996,4.60036,2470.553,2022-4-28T07:30:40Z
2022-04-28T05:32:03Z,42.805,6.029,13.2998,4.60036,2470.591,2022-4-28T07:33:43Z
2022-04-28T05:35:07Z,42.805,6.029,13.2997,4.60035,2470.53,2022-4-28T07:36:46Z
2022-04-28T05:38:10Z,42.805,6.029,13.2998,4.60035,2470.553,2022-4-28T07:39:49Z
2022-04-28T05:41:13Z,42.805,6.029,13.3002,4.60036,2470.507,2022-4-28T07:42:52Z
2022-04-28T05:44:16Z,42.805,6.029,13.2997,4.60036,2470.553,2022-4-28T07:45:55Z
2022-04-28T05:47:19Z,42.805,6.029,13.2996,4.60035,2470.52,2022-4-28T07:48:59Z
2022-04-28T05:50:22Z,42.805,6.029,13.3000,4.60035,2470.567,2022-4-28T07:52:02Z
2022-04-28T05:53:25Z,42.805,6.029,13.2998,4.60035,2470.539,2022-4-28T07:55:05Z
2022-04-28T05:56:28Z,42.805,6.029,13.2996,4.60034,2470.544,2022-4-28T07:58:08Z
2022-04-28T05:59:32Z,42.805,6.029,13.2999,4.60036,2470.53,2022-4-28T08:01:11Z
2022-04-28T06:02:35Z,42.805,6.029,13.2998,4.60034,2470.544,2022-4-28T08:04:14Z
2022-04-28T06:05:38Z,42.805,6.029,13.2995,4.60035,2470.544,2022-4-28T08:07:17Z
2022-04-28T06:08:41Z,42.805,6.029,13.3001,4.60035,2470.507,2022-4-28T08:10:20Z
2022-04-28T06:11:44Z,42.805,6.029,13.2997,4.60036,2470.507,2022-4-28T08:13:24Z
2022-04-28T06:14:47Z,42.805,6.029,13.2996,4.60039,2470.53,2022-4-28T08:16:27Z
2022-04-28T06:17:50Z,42.805,6.029,13.2996,4.60035,2470.507,2022-4-28T08:19:30Z
2022-04-28T06:20:53Z,42.805,6.029,13.2993,4.60036,2470.507,2022-4-28T08:22:33Z
2022-04-28T06:23:56Z,42.805,6.029,13.2998,4.60037,2470.507,2022-4-28T08:25:36Z
2022-04-28T06:27:00Z,42.805,6.029,13.2998,4.60036,2470.507,2022-4-28T08:28:39Z
2022-04-28T06:30:03Z,42.805,6.029,13.2993,4.60036,2470.53,2022-4-28T08:31:42Z
2022-04-28T06:33:06Z,42.805,6.029,13.2998,4.60036,2470.567,2022-4-28T08:34:45Z
2022-04-28T06:36:09Z,42.805,6.029,13.2996,4.60038,2470.53,2022-4-28T08:37:48Z
2022-04-28T06:39:12Z,42.805,6.029,13.2994,4.60037,2470.544,2022-4-28T08:40:52Z
2022-04-28T06:42:15Z,42.805,6.029,13.2996,4.60037,2470.507,2022-4-28T08:43:55Z
2022-04-28T06:45:18Z,42.805,6.029,13.3002,4.60036,2470.539,2022-4-28T08:46:58Z
2022-04-28T06:48:21Z,42.805,6.029,13.3000,4.60037,2470.483,2022-4-28T08:50:01Z
2022-04-28T06:51:25Z,42.805,6.029,13.2999,4.60037,2470.53,2022-4-28T08:53:04Z
2022-04-28T06:54:28Z,42.805,6.029,13.2996,4.60036,2470.483,2022-4-28T08:56:07Z
2022-04-28T06:57:31Z,42.805,6.029,13.2998,4.60036,2470.52,2022-4-28T08:59:10Z
2022-04-28T07:00:34Z,42.805,6.029,13.2995,4.60036,2470.483,2022-4-28T09:02:13Z
2022-04-28T07:03:37Z,42.805,6.029,13.2998,4.60038,2470.507,2022-4-28T09:05:17Z
2022-04-28T07:06:40Z,42.805,6.029,13.3001,4.60036,2470.483,2022-4-28T09:08:20Z
2022-04-28T07:09:43Z,42.805,6.029,13.2993,4.60036,2470.507,2022-4-28T09:11:23Z
2022-04-28T07:12:46Z,42.805,6.029,13.2998,4.60035,2470.544,2022-4-28T09:14:26Z
2022-04-28T07:15:50Z,42.805,6.029,13.2999,4.60035,2470.507,2022-4-28T09:17:29Z
2022-04-28T07:18:53Z,42.805,6.029,13.2997,4.60036,2470.53,2022-4-28T09:20:32Z
2022-04-28T07:21:56Z,42.805,6.029,13.2993,4.60036,2470.53,2022-4-28T09:23:35Z
2022-04-28T07:24:59Z,42.805,6.029,13.2998,4.60034,2470.483,2022-4-28T09:26:38Z
2022-04-28T07:28:02Z,42.805,6.029,13.2999,4.60035,2470.544,2022-4-28T09:29:41Z
2022-04-28T07:31:05Z,42.805,6.029,13.3000,4.60034,2470.497,2022-4-28T09:32:45Z
2022-04-28T07:34:08Z,42.805,6.029,13.2997,4.60036,2470.507,2022-4-28T09:35:48Z
2022-04-28T07:37:11Z,42.805,6.029,13.2999,4.60036,2470.483,2022-4-28T09:38:51Z
2022-04-28T07:40:15Z,42.805,6.029,13.2999,4.60037,2470.53,2022-4-28T09:41:54Z
2022-04-28T07:43:18Z,42.805,6.029,13.2998,4.60036,2470.474,2022-4-28T09:44:57Z
2022-04-28T07:46:21Z,42.805,6.029,13.2997,4.60036,2470.46,2022-4-28T09:48:00Z
2022-04-28T07:49:24Z,42.805,6.029,13.2996,4.60038,2470.483,2022-4-28T09:51:03Z
2022-04-28T07:52:27Z,42.805,6.029,13.3000,4.60036,2470.52,2022-4-28T09:54:06Z
2022-04-28T07:55:30Z,42.805,6.029,13.2995,4.60036,2470.474,2022-4-28T09:57:10Z
2022-04-28T07:58:33Z,42.805,6.029,13.2992,4.60034,2470.46,2022-4-28T10:00:13Z
2022-04-28T08:01:36Z,42.805,6.029,13.3000,4.60035,2470.46,2022-4-28T10:03:16Z
2022-04-28T08:04:40Z,42.805,6.029,13.2998,4.60036,2470.474,2022-4-28T10:06:19Z
2022-04-28T08:07:43Z,42.805,6.029,13.2997,4.60036,2470.483,2022-4-28T10:09:22Z
2022-04-28T08:10:46Z,42.805,6.029,13.2999,4.60036,2470.483,2022-4-28T10:12:25Z
2022-04-28T08:13:49Z,42.805,6.029,13.3000,4.60035,2470.507,2022-4-28T10:15:28Z
2022-04-28T08:16:52Z,42.805,6.029,13.2999,4.60036,2470.47,2022-4-28T10:18:31Z
2022-04-28T08:19:55Z,42.805,6.029,13.3003,4.60036,2470.474,2022-4-28T10:21:35Z
2022-04-28T08:22:58Z,42.805,6.029,13.2996,4.60036,2470.497,2022-4-28T10:24:38Z
2022-04-28T08:26:01Z,42.805,6.029,13.2997,4.60035,2470.446,2022-4-28T10:27:41Z
2022-04-28T08:29:05Z,42.805,6.029,13.2996,4.60036,2470.437,2022-4-28T10:30:44Z
2022-04-28T08:32:08Z,42.805,6.029,13.2995,4.60035,2470.474,2022-4-28T10:33:47Z
2022-04-28T08:35:11Z,42.805,6.029,13.2996,4.60035,2470.45,2022-4-28T10:36:50Z
2022-04-28T08:38:14Z,42.805,6.029,13.2998,4.60036,2470.474,2022-4-28T10:39:53Z
2022-04-28T08:41:17Z,42.805,6.029,13.2999,4.60037,2470.437,2022-4-28T10:42:56Z
2022-04-28T08:44:20Z,42.805,6.029,13.2996,4.60035,2470.437,2022-4-28T10:46:00Z
2022-04-28T08:47:23Z,42.805,6.029,13.3000,4.60035,2470.46,2022-4-28T10:49:03Z
2022-04-28T08:50:26Z,42.805,6.029,13.2995,4.60036,2470.413,2022-4-28T10:52:06Z
2022-04-28T08:53:30Z,42.805,6.029,13.3000,4.60034,2470.437,2022-4-28T10:55:09Z
2022-04-28T08:56:33Z,42.805,6.029,13.2998,4.60036,2470.46,2022-4-28T10:58:12Z
2022-04-28T08:59:36Z,42.805,6.029,13.2998,4.60035,2470.46,2022-4-28T11:01:15Z
2022-04-28T09:02:39Z,42.805,6.029,13.2996,4.60036,2470.45,2022-4-28T11:04:18Z
2022-04-28T09:05:42Z,42.805,6.029,13.2995,4.60035,2470.45,2022-4-28T11:07:22Z
2022-04-28T09:08:45Z,42.805,6.029,13.2996,4.60034,2470.427,2022-4-28T11:10:25Z
2022-04-28T09:11:48Z,42.805,6.029,13.2997,4.60034,2470.404,2022-4-28T11:13:28Z
2022-04-28T09:14:51Z,42.805,6.029,13.2998,4.60034,2470.413,2022-4-28T11:16:31Z
2022-04-28T09:17:55Z,42.805,6.029,13.3001,4.60034,2470.39,2022-4-28T11:19:34Z
2022-04-28T09:20:58Z,42.805,6.029,13.2997,4.60033,2470.437,2022-4-28T11:22:37Z
2022-04-28T09:24:01Z,42.805,6.029,13.2998,4.60034,2470.413,2022-4-28T11:25:40Z
2022-04-28T09:27:04Z,42.805,6.029,13.2996,4.60035,2470.45,2022-4-28T11:28:43Z
2022-04-28T09:30:07Z,42.805,6.029,13.3000,4.60034,2470.413,2022-4-28T11:31:46Z
2022-04-28T09:33:10Z,42.805,6.029,13.2998,4.60034,2470.39,2022-4-28T11:34:50Z
2022-04-28T09:36:13Z,42.805,6.029,13.2996,4.60034,2470.427,2022-4-28T11:37:53Z
2022-04-28T09:39:16Z,42.805,6.029,13.2996,4.60035,2470.39,2022-4-28T11:40:56Z
2022-04-28T09:42:20Z,42.805,6.029,13.2998,4.60035,2470.437,2022-4-28T11:43:59Z
2022-04-28T09:45:23Z,42.805,6.029,13.2998,4.60035,2470.413,2022-4-28T11:47:02Z
2022-04-28T09:48:26Z,42.805,6.029,13.2999,4.60035,2470.39,2022-4-28T11:50:05Z
2022-04-28T09:51:29Z,42.805,6.029,13.2998,4.60034,2470.413,2022-4-28T11:53:08Z
2022-04-28T09:54:32Z,42.805,6.029,13.2996,4.60036,2470.38,2022-4-28T11:56:12Z
2022-04-28T09:57:35Z,42.805,6.029,13.2996,4.60035,2470.38,2022-4-28T11:59:15Z
2022-04-28T10:00:38Z,42.805,6.029,13.3000,4.60035,2470.39,2022-4-28T12:02:18Z
2022-04-28T10:03:41Z,42.805,6.029,13.3000,4.60034,2470.39,2022-4-28T12:05:21Z
2022-04-28T10:06:45Z,42.805,6.029,13.2997,4.60034,2470.39,2022-4-28T12:08:24Z
2022-04-28T10:09:48Z,42.805,6.029,13.3000,4.60034,2470.39,2022-4-28T12:11:27Z
2022-04-28T10:12:51Z,42.805,6.029,13.3000,4.60033,2470.366,2022-4-28T12:14:30Z
2022-04-28T10:15:54Z,42.805,6.029,13.2999,4.60035,2470.38,2022-4-28T12:17:33Z
2022-04-28T10:18:57Z,42.805,6.029,13.2996,4.60036,2470.343,2022-4-28T12:20:37Z
2022-04-28T10:22:00Z,42.805,6.029,13.2995,4.60035,2470.366,2022-4-28T12:23:40Z
2022-04-28T10:25:03Z,42.805,6.029,13.2995,4.60033,2470.357,2022-4-28T12:26:43Z
2022-04-28T10:28:06Z,42.805,6.029,13.2998,4.60034,2470.38,2022-4-28T12:29:46Z
2022-04-28T10:31:10Z,42.805,6.029,13.2996,4.60034,2470.32,2022-4-28T12:32:49Z
2022-04-28T10:34:13Z,42.805,6.029,13.2996,4.60035,2470.366,2022-4-28T12:35:52Z
2022-04-28T10:37:16Z,42.805,6.029,13.3000,4.60034,2470.38,2022-4-28T12:38:55Z
2022-04-28T10:40:19Z,42.805,6.029,13.2996,4.60036,2470.366,2022-4-28T12:41:58Z
2022-04-28T10:43:22Z,42.805,6.029,13.2999,4.60034,2470.334,2022-4-28T12:45:02Z
2022-04-28T10:46:25Z,42.805,6.029,13.2998,4.60033,2470.366,2022-4-28T12:48:05Z
2022-04-28T10:49:28Z,42.805,6.029,13.2997,4.60034,2470.32,2022-4-28T12:51:08Z
2022-04-28T10:52:31Z,42.805,6.029,13.2996,4.60033,2470.32,2022-4-28T12:54:11Z
2022-04-28T10:55:35Z,42.805,6.029,13.3000,4.60033,2470.343,2022-4-28T12:57:14Z
2022-04-28T10:58:38Z,42.805,6.029,13.2993,4.60033,2470.343,2022-4-28T13:00:17Z
2022-04-28T11:01:41Z,42.805,6.029,13.2998,4.60034,2470.38,2022-4-28T13:03:20Z
2022-04-28T11:04:44Z,42.805,6.029,13.2998,4.60033,2470.32,2022-4-28T13:06:23Z
2022-04-28T11:07:47Z,42.805,6.029,13.2997,4.60034,2470.343,2022-4-28T13:09:27Z
2022-04-28T11:10:50Z,42.805,6.029,13.2996,4.60034,2470.357,2022-4-28T13:12:30Z
2022-04-28T11:13:53Z,42.805,6.029,13.2998,4.60033,2470.334,2022-4-28T13:15:33Z
2022-04-28T11:16:56Z,42.805,6.029,13.2997,4.60032,2470.334,2022-4-28T13:18:36Z
2022-04-28T11:20:00Z,42.805,6.029,13.2996,4.60033,2470.31,2022-4-28T13:21:39Z
2022-04-28T11:23:03Z,42.805,6.029,13.2996,4.60033,2470.334,2022-4-28T13:24:42Z
2022-04-28T11:26:06Z,42.805,6.029,13.2998,4.60033,2470.32,2022-4-28T13:27:45Z
2022-04-28T11:29:09Z,42.805,6.029,13.2998,4.60033,2470.32,2022-4-28T13:30:48Z
2022-04-28T11:32:12Z,42.805,6.029,13.2999,4.60033,2470.334,2022-4-28T13:33:52Z
2022-04-28T11:35:15Z,42.805,6.029,13.2995,4.60033,2470.297,2022-4-28T13:36:55Z
2022-04-28T11:38:18Z,42.805,6.029,13.3002,4.60034,2470.32,2022-4-28T13:39:58Z
2022-04-28T11:41:21Z,42.805,6.029,13.2996,4.60034,2470.32,2022-4-28T13:43:01Z
2022-04-28T11:44:25Z,42.805,6.029,13.2996,4.60032,2470.306,2022-4-28T13:46:04Z
2022-04-28T11:47:28Z,42.805,6.029,13.2998,4.60033,2470.334,2022-4-28T13:49:07Z
2022-04-28T11:50:31Z,42.805,6.029,13.3000,4.60034,2470.32,2022-4-28T13:52:10Z
2022-04-28T11:53:34Z,42.805,6.029,13.2994,4.60033,2470.334,2022-4-28T13:55:13Z
2022-04-28T11:56:37Z,42.805,6.029,13.2996,4.60035,2470.32,2022-4-28T13:58:17Z
2022-04-28T11:59:40Z,42.805,6.029,13.2996,4.60034,2470.357,2022-4-28T14:01:20Z
2022-04-28T12:02:43Z,42.805,6.029,13.3000,4.60033,2470.32,2022-4-28T14:04:23Z
2022-04-28T12:05:46Z,42.805,6.029,13.2997,4.60034,2470.357,2022-4-28T14:07:26Z
2022-04-28T12:08:50Z,42.805,6.029,13.2995,4.60034,2470.357,2022-4-28T14:10:29Z
2022-04-28T12:11:53Z,42.805,6.029,13.2998,4.60033,2470.32,2022-4-28T14:13:32Z
2022-04-28T12:14:56Z,42.805,6.029,13.2995,4.60033,2470.366,2022-4-28T14:16:35Z
2022-04-28T12:17:59Z,42.805,6.029,13.2996,4.60033,2470.31,2022-4-28T14:19:38Z
2022-04-28T12:21:02Z,42.805,6.029,13.2997,4.60033,2470.32,2022-4-28T14:22:42Z
2022-04-28T12:24:05Z,42.805,6.029,13.2998,4.60034,2470.297,2022-4-28T14:25:45Z
2022-04-28T12:27:08Z,42.805,6.029,13.3001,4.60033,2470.32,2022-4-28T14:28:48Z
2022-04-28T12:30:11Z,42.805,6.029,13.2993,4.60034,2470.297,2022-4-28T14:31:51Z
2022-04-28T12:33:15Z,42.805,6.029,13.2999,4.60033,2470.343,2022-4-28T14:34:54Z
2022-04-28T12:36:18Z,42.805,6.029,13.2999,4.60033,2470.32,2022-4-28T14:37:57Z
2022-04-28T12:39:21Z,42.805,6.029,13.3000,4.60033,2470.297,2022-4-28T14:41:00Z
2022-04-28T12:42:24Z,42.805,6.029,13.2999,4.60033,2470.273,2022-4-28T14:44:03Z
2022-04-28T12:45:27Z,42.805,6.029,13.2994,4.60033,2470.32,2022-4-28T14:47:07Z
2022-04-28T12:48:30Z,42.805,6.029,13.2996,4.60033,2470.32,2022-4-28T14:50:10Z
2022-04-28T12:51:33Z,42.805,6.029,13.3000,4.60033,2470.31,2022-4-28T14:53:13Z
2022-04-28T12:54:36Z,42.805,6.029,13.2995,4.60033,2470.334,2022-4-28T14:56:16Z
2022-04-28T12:57:40Z,42.805,6.029,13.2993,4.60033,2470.297,2022-4-28T14:59:19Z
2022-04-28T13:00:43Z,42.805,6.029,13.2999,4.60033,2470.25,2022-4-28T15:02:22Z
2022-04-28T13:03:46Z,42.805,6.029,13.2996,4.60033,2470.32,2022-4-28T15:05:25Z
2022-04-28T13:06:49Z,42.805,6.029,13.2996,4.60034,2470.297,2022-4-28T15:08:28Z
2022-04-28T13:09:52Z,42.805,6.029,13.2996,4.60033,2470.287,2022-4-28T15:11:32Z
2022-04-28T13:12:55Z,42.805,6.029,13.2996,4.60033,2470.273,2022-4-28T15:14:35Z
2022-04-28T13:15:58Z,42.805,6.029,13.2996,4.60035,2470.297,2022-4-28T15:17:38Z
2022-04-28T13:19:01Z,42.805,6.029,13.2997,4.60035,2470.273,2022-4-28T15:20:41Z
2022-04-28T13:22:05Z,42.805,6.029,13.2996,4.60033,2470.273,2022-4-28T15:23:44Z
2022-04-28T13:25:08Z,42.805,6.029,13.2996,4.60034,2470.297,2022-4-28T15:26:47Z
2022-04-28T13:28:11Z,42.805,6.029,13.3000,4.60035,2470.273,2022-4-28T15:29:50Z
2022-04-28T13:31:14Z,42.805,6.029,13.2999,4.60033,2470.334,2022-4-28T15:32:53Z
2022-04-28T13:34:17Z,42.805,6.029,13.2997,4.60033,2470.32,2022-4-28T15:35:57Z
2022-04-28T13:37:20Z,42.805,6.029,13.2998,4.60034,2470.297,2022-4-28T15:39:00Z
2022-04-28T13:40:23Z,42.805,6.029,13.2994,4.60034,2470.334,2022-4-28T15:42:03Z
2022-04-28T13:43:26Z,42.805,6.029,13.2994,4.60033,2470.297,2022-4-28T15:45:06Z
2022-04-28T13:46:30Z,42.805,6.029,13.2998,4.60034,2470.334,2022-4-28T15:48:09Z
2022-04-28T13:49:33Z,42.805,6.029,13.3001,4.60036,2470.334,2022-4-28T15:51:12Z
2022-04-28T13:52:36Z,42.805,6.029,13.2995,4.60033,2470.297,2022-4-28T15:54:15Z
2022-04-28T13:55:39Z,42.805,6.029,13.2997,4.60034,2470.297,2022-4-28T15:57:18Z
2022-04-28T13:58:42Z,42.805,6.029,13.2998,4.60033,2470.287,2022-4-28T16:00:22Z
2022-04-28T14:01:45Z,42.805,6.029,13.2997,4.60033,2470.357,2022-4-28T16:03:25Z
2022-04-28T14:04:48Z,42.805,6.029,13.2999,4.60033,2470.32,2022-4-28T16:06:28Z
2022-04-28T14:07:51Z,42.805,6.029,13.3000,4.60033,2470.273,2022-4-28T16:09:31Z
2022-04-28T14:10:55Z,42.805,6.029,13.3000,4.60033,2470.32,2022-4-28T16:12:34Z
2022-04-28T14:13:58Z,42.805,6.029,13.2996,4.60035,2470.32,2022-4-28T16:15:37Z
2022-04-28T14:17:01Z,42.805,6.029,13.2996,4.60033,2470.297,2022-4-28T16:18:40Z
2022-04-28T14:20:04Z,42.805,6.029,13.3000,4.60036,2470.343,2022-4-28T16:21:44Z
2022-04-28T14:23:07Z,42.805,6.029,13.2995,4.60034,2470.38,2022-4-28T16:24:47Z
2022-04-28T14:26:10Z,42.805,6.029,13.2999,4.60033,2470.32,2022-4-28T16:27:50Z
2022-04-28T14:29:13Z,42.805,6.029,13.2997,4.60033,2470.297,2022-4-28T16:30:53Z
2022-04-28T14:32:16Z,42.805,6.029,13.3000,4.60033,2470.343,2022-4-28T16:33:56Z
2022-04-28T14:35:20Z,42.805,6.029,13.2996,4.60034,2470.357,2022-4-28T16:36:59Z
2022-04-28T14:38:23Z,42.805,6.029,13.2997,4.60035,2470.343,2022-4-28T16:40:02Z
2022-04-28T14:41:26Z,42.805,6.029,13.3000,4.60033,2470.366,2022-4-28T16:43:05Z
2022-04-28T14:44:29Z,42.805,6.029,13.3000,4.60034,2470.343,2022-4-28T16:46:09Z
2022-04-28T14:47:32Z,42.805,6.029,13.2994,4.60033,2470.404,2022-4-28T16:49:12Z
2022-04-28T14:50:35Z,42.805,6.029,13.2996,4.60035,2470.31,2022-4-28T16:52:15Z
2022-04-28T14:53:38Z,42.805,6.029,13.2994,4.60033,2470.32,2022-4-28T16:55:18Z
2022-04-28T14:56:42Z,42.805,6.029,13.2996,4.60034,2470.38,2022-4-28T16:58:21Z
2022-04-28T14:59:45Z,42.805,6.029,13.2998,4.60033,2470.357,2022-4-28T17:01:24Z
2022-04-28T15:02:48Z,42.805,6.029,13.2998,4.60035,2470.366,2022-4-28T17:04:27Z
2022-04-28T15:05:51Z,42.805,6.029,13.2998,4.60035,2470.343,2022-4-28T17:07:30Z
2022-04-28T15:08:54Z,42.805,6.029,13.3001,4.60034,2470.413,2022-4-28T17:10:34Z
2022-04-28T15:11:57Z,42.805,6.029,13.3001,4.60034,2470.366,2022-4-28T17:13:37Z
2022-04-28T15:15:00Z,42.805,6.029,13.3000,4.60035,2470.39,2022-4-28T17:16:40Z